COSMOS 2350

Satellite information

Favourite Embed

Satellite Type and Status

PAYLOADIN ORBIT

Key statistics

Satellite COSMOS 2350 at a glance.

Uptime

10051

Days in orbit

Revolutions

≈ 1.0

Per day

Orbit

OTHER

Other

Inclination

13.9

Latest

Satellite identification and parameters

Extended collection of information and parameters for COSMOS 2350.

Object identification

Identified? True

Debris? False

Object name: COSMOS 2350

International designator: 1998-025A

Object number (NORAD): 25315

Object ID (CCSDS): 25315

Country: COMMONWEALTH OF INDEPENDENT STATES (CIS)

Current information (Y/N): Y

RCS size: LARGE

Orbital parameters

Period: 1436.078 minutes

Inclination: 13.8805 deg

SMA: 42164.358 km

Apoapsis: 35818.968 km

Periapsis: 35753.478 km

RAAN: 5.4755 deg

Eccentricy: 0.0007766

Argument of periapsis: 180.3166 deg

Mean anomaly: 176.2007 deg

Mean motion: 1.00273119 rev/day

Mean motion (dot): -0.00000047 rev/day2

B* drag term: 0.0 1/REarth

Two-line elements (TLE)

Creation date: Nov. 3, 2025, 11:26 p.m.

Reference frame: TEME

Reference center: EARTH

Epoch: Nov. 3, 2025, 4:38 p.m. UTC

TLE line 0: 0 COSMOS 2350

TLE line 1: 1 25315U 98025A 25307.69339781 -.00000047 00000-0 00000+0 0 9994

TLE line 2: 2 25315 13.8805 5.4755 0007766 180.3166 176.2007 1.00273119100749

Live tracking on map

Real-time ground track for satellite COSMOS 2350.

In-orbit conjunctions

A list of the most updated potential collisions computed for object COSMOS 2350.

Target Orbit TCA Probability of collision Miss distance Type
STTW-2 OTHER 2025-04-08 11:21:45 TBA 4486.0 (m) PAYLOAD

Associated space launch

Second generation early warning satellite

COSMOS 2350 was lifted into orbit during the mission ‘Proton | US-KMO 4’, on board a Proton space rocket.

The launch took place on April 29, 1998, 4:36 a.m. from 200/39 (200L).

For more information about the launch, click the button.

Launch to space Proton | US-KMO 4
Proton | US-KMO 4

Agency: N/A

Status: Launch Successful

Launch date: April 29, 1998, 4:36 a.m. UTC

Rocket: Proton

Launch pad: 200/39 (200L)

Location: Baikonur Cosmodrome, Republic of Kazakhstan

...

Latest news about this satellite

There are no fresh news available about this satellite. Check back as we update our databases every day.


Newsletter sign-up

Weekly statistics, charts and insights to help you stay on top of the space industry.